EW9430 Weather Reports


time (UTC)temp
F
wind
direction
speed
knots
gust
knots
rain 1hr
in
rain 24hr
in
rain mn
in
humidity
%
barometer
mb
20260505125015 52 247 0.0 0.9 0.00 0.00 0.00 93 1008.8
20260505124015 51 247 0.0 0.9 0.00 0.00 0.00 93 1008.8
20260505123015 51 247 0.0 0.9 0.00 0.00 0.00 93 1008.8
20260505122016 51 0.0 0.0 0.00 0.00 0.00 93 1008.8
20260505121015 51 0.0 0.0 0.00 0.00 0.00 93 1008.8
20260505120016 51 0.0 0.0 0.00 0.00 0.00 93 1008.7
20260505115015 51 0.0 0.0 0.00 0.00 0.00 94 1008.5
20260505114015 50 0.0 0.0 0.00 0.00 0.00 94 1008.6
20260505113015 50 0.0 0.0 0.00 0.00 0.00 94 1008.5
20260505112123 50 0.0 0.0 0.00 0.00 0.00 94 1008.5
20260505111016 50 247 0.0 0.9 0.00 0.00 0.00 94 1008.5
20260505102036 49 247 0.9 0.9 0.00 0.00 0.00 93 1008.1
20260505101056 49 247 0.0 0.9 0.00 0.00 0.00 93 1008.1
20260505100015 49 247 0.0 0.9 0.00 0.00 0.00 93 1008.1
20260505095015 50 0.0 0.0 0.00 0.00 0.00 92 1008.1
20260505094016 50 247 0.0 0.9 0.00 0.00 0.00 92 1007.9
20260505093015 50 0.0 0.0 0.00 0.00 0.00 92 1007.9
20260505092016 50 247 0.9 2.6 0.00 0.00 0.00 91 1007.8
20260505091016 50 0.0 0.0 0.00 0.00 0.00 91 1007.8
20260505090016 51 0.0 0.0 0.00 0.00 0.00 91 1007.4
20260505085037 51 247 0.9 1.7 0.00 0.00 0.00 91 1007.6
20260505084015 51 247 0.9 1.7 0.00 0.00 0.00 90 1007.7
20260505083017 51 247 0.0 1.7 0.00 0.00 0.00 89 1007.9
20260505082015 51 247 0.0 0.9 0.00 0.00 0.00 88 1007.7
20260505081016 52 247 0.0 1.7 0.00 0.00 0.00 88 1007.4
20260505080017 52 0.0 0.0 0.00 0.00 0.00 87 1007.4
20260505075015 52 0.0 0.0 0.00 0.00 0.00 87 1007.4
20260505074016 53 247 0.0 0.9 0.00 0.00 0.00 87 1007.4
20260505073017 53 247 0.9 1.7 0.00 0.00 0.00 86 1007.1
20260505072035 54 247 0.9 1.7 0.00 0.00 0.00 86 1007.1
20260505071015 54 247 0.9 2.6 0.00 0.00 0.00 85 1007.1
20260505070016 54 226 0.9 1.7 0.00 0.00 0.00 85 1006.8
20260505065016 54 0.0 0.0 0.00 0.00 0.00 85 1006.8
20260505064015 55 225 0.9 0.9 0.00 0.00 0.00 84 1006.5
20260505063015 55 225 0.9 1.7 0.00 0.00 0.00 84 1006.4
20260505062015 55 225 0.9 1.7 0.00 0.00 0.00 84 1006.4
20260505061036 56 225 0.9 1.7 0.00 0.00 0.00 83 1006.4
20260505060015 56 225 0.9 1.7 0.00 0.00 0.00 83 1006.4
20260505055017 56 225 0.9 1.7 0.00 0.00 0.00 82 1006.1
20260505054015 57 225 0.0 1.7 0.00 0.00 0.00 81 1006.1
20260505053016 57 225 0.9 1.7 0.00 0.00 0.00 80 1006.2
20260505052016 58 239 1.7 2.6 0.00 0.00 0.00 79 1006.1
20260505051015 59 225 0.9 2.6 0.00 0.00 0.00 78 1006.1
20260505041016 62 0.0 0.0 0.00 0.00 0.00 71 1005.1
20260505040035 63 0.0 0.0 0.00 0.00 0.00 70 1004.8
20260505035016 64 0.0 0.0 0.00 0.00 0.00 69 1004.7
20260505034016 65 0.0 0.0 0.00 0.00 0.00 69 1004.6
20260505033017 65 225 0.0 0.9 0.00 0.00 0.00 68 1004.6
20260505032015 66 225 0.0 1.7 0.00 0.00 0.00 67 1004.4
20260505031016 66 225 0.9 1.7 0.00 0.00 0.00 67 1004.4
20260505030015 67 229 0.9 2.6 0.00 0.00 0.00 68 1004.2
20260505025015 67 225 0.9 2.6 0.00 0.00 0.00 68 1004.0
20260505024016 68 225 0.0 1.7 0.00 0.00 0.00 67 1004.0
20260505023016 69 225 1.7 2.6 0.00 0.00 0.00 66 1004.0
20260505022035 69 225 1.7 3.5 0.00 0.00 0.00 67 1004.0
20260505021015 70 209 0.9 3.5 0.00 0.00 0.00 67 1003.8
20260505020015 70 225 0.9 2.6 0.00 0.00 0.00 67 1003.7
20260505015016 70 225 0.9 2.6 0.00 0.00 0.00 66 1003.7
20260505014017 71 227 0.9 1.7 0.00 0.00 0.00 65 1003.7
20260505013015 71 225 0.9 3.5 0.00 0.00 0.00 66 1003.7
20260505012036 71 229 0.9 2.6 0.00 0.00 0.00 66 1003.9
20260505011015 71 225 0.9 2.6 0.00 0.00 0.00 65 1004.1
20260505010015 71 225 0.9 2.6 0.00 0.00 0.00 64 1004.1
20260505005018 71 225 0.9 3.5 0.00 0.00 0.00 64 1004.0
20260505004017 71 209 0.9 3.5 0.00 0.00 0.00 64 1004.2
20260505003017 71 231 0.9 2.6 0.00 0.00 0.00 64 1004.4
20260505002036 71 225 0.9 3.5 0.00 0.00 0.00 64 1004.4
20260505001038 72 225 0.9 3.5 0.00 0.00 0.00 63 1004.4
20260505000015 71 229 1.7 3.5 0.00 0.00 0.00 64 1004.4
20260504235016 71 225 1.7 3.5 0.00 0.00 0.00 64 1004.4
20260504234016 71 229 1.7 3.5 0.00 0.00 0.00 63 1004.6
20260504233017 71 242 0.9 2.6 0.00 0.00 0.00 64 1004.7
20260504232016 71 228 1.7 3.5 0.00 0.00 0.00 63 1004.6
20260504231015 71 229 1.7 3.5 0.00 0.00 0.00 61 1004.7
20260504230015 72 228 1.7 5.2 0.00 0.00 0.00 61 1004.7
20260504225016 72 233 1.7 3.5 0.00 0.00 0.00 60 1004.8
20260504224015 72 228 1.7 4.3 0.00 0.00 0.00 61 1004.9
20260504223016 71 229 1.7 4.3 0.00 0.00 0.00 61 1005.1
20260504222117 71 229 2.6 4.3 0.00 0.00 0.00 61 1005.1
20260504221036 71 226 1.7 5.2 0.00 0.00 0.00 61 1005.3
20260504220015 71 233 1.7 4.3 0.00 0.00 0.00 62 1005.4
20260504215015 71 237 1.7 3.5 0.00 0.00 0.00 62 1005.4
20260504214016 71 230 1.7 4.3 0.00 0.00 0.00 61 1005.6
20260504213016 71 222 1.7 3.5 0.00 0.00 0.00 60 1005.7
20260504212055 71 238 0.9 4.3 0.00 0.00 0.00 61 1005.9
20260504211036 71 235 1.7 4.3 0.00 0.00 0.00 61 1006.1
20260504210016 70 234 0.9 1.7 0.00 0.00 0.00 61 1006.3
20260504205016 70 234 0.9 3.5 0.00 0.00 0.00 63 1006.4
20260504204015 69 249 0.0 4.3 0.00 0.00 0.00 64 1006.4
20260504203018 68 228 1.7 3.5 0.00 0.00 0.00 64 1006.6
20260504202015 68 235 1.7 3.5 0.00 0.00 0.00 65 1006.8
20260504201016 67 240 0.9 2.6 0.00 0.00 0.00 67 1007.0
20260504200015 65 237 0.9 3.5 0.00 0.00 0.00 70 1007.0
20260504195015 63 230 0.0 2.6 0.00 0.00 0.00 73 1007.2
20260504194016 62 228 1.7 3.5 0.00 0.00 0.00 73 1007.1
20260504193018 62 230 1.7 3.5 0.00 0.00 0.00 74 1007.4
20260504192016 61 232 0.9 3.5 0.00 0.00 0.00 75 1007.4
20260504191016 60 229 0.9 2.6 0.00 0.00 0.00 77 1007.4
20260504190016 60 230 0.9 3.5 0.00 0.00 0.00 78 1007.4
20260504185016 59 225 0.9 2.6 0.00 0.00 0.00 79 1007.6
20260504184035 59 225 0.9 2.6 0.00 0.00 0.00 80 1007.6
20260504183015 59 227 0.9 2.6 0.00 0.00 0.00 80 1007.5
20260504182016 58 225 0.9 2.6 0.00 0.00 0.00 81 1007.4
20260504181016 58 228 0.0 2.6 0.00 0.00 0.00 81 1007.5
20260504180015 58 225 0.9 1.7 0.00 0.00 0.00 82 1007.5
20260504175015 57 226 0.9 2.6 0.00 0.00 0.00 82 1007.4
20260504174016 57 247 0.0 1.7 0.00 0.00 0.00 83 1007.4
20260504173015 57 241 0.0 1.7 0.00 0.00 0.00 83 1007.4
20260504172016 57 226 0.9 3.5 0.00 0.00 0.00 84 1007.4
20260504171017 56 228 0.9 2.6 0.00 0.00 0.00 84 1007.4
20260504151015 54 225 0.9 2.6 0.00 0.00 0.00 88 1007.1